OPS 4682 DEB, 38437

Orbit data source: Space-Track

OPS 4682 DEB, 38437 is space debris in LEO originally from a launch on Sat, 03 Apr 1965 UTC launched from the Air Force Western Test Range (AFWTR). Debris objects in space refer to the collection of defunct objects orbiting the Earth. Examples of debris include non-operational satellites, rocket bodies, and fragments generated from explosions, collisions, or faulty payload assembly.

Loading next visibility...
Identifier
38437, 1965-027ES
Orbit
LEO
Country
Flag of USUS
Related business
Manufacturer
Unknown
Mission
Spacecraft
Bus & Motor
Unknown
Mass
Unknown
Launch date (UTC)
1965-04-03 (61 years ago)
Launch vehicle
Unknown
Launch site
Air Force Western Test Range (AFWTR)
Object type
Payload
Rocket body
Debris
Shape & HBR
Unknown shape, 0.1 m
Radar Cross Section
Medium (>0.1 m² and <1 m²)

Expand to show TLE details & history
Last TLE update: 13 hours ago

TLE from 13 hours ago
0 OPS 4682 DEB
1 38437U 65027ES  26249.31326531  .00000414  00000-0  14289-2 0  9997
2 38437  90.2413   7.4068 0036261 312.8089  46.9984 12.95956723561056
Epoch: 2026-09-06T07:31Z
TLE epoch observation values (Epoch: 2026-09-06T07:31:06.122Z)
Latitude
-0.00003°
Longitude
-90.77888°
Altitude
1,261.964 km
Speed
7.233 km/s
True Right ascension
00h 29m 37s
True Declination
0° 00' 00"
Sunlit
Object was in full shadow at epoch
Visualization orbit readout
Latitude
Unknown
Longitude
Unknown
Altitude
Unknown
Speed
Unknown
Apparent Right ascension
Unknown
Apparent Declination
Unknown
Sunlit
N/A
Visualization observer readout
Local Sidereal Time
12:30:10
Azimuth
Unknown
Elevation
Unknown
Doppler factor
Unknown
Orbital elements
Apogee altitude
1,302.854 km
Perigee altitude
1,247.351 km
Semi-major axis
7,653.24 km
Eccentricity
0.00363
Inclination
90.2413°
RAAN
7.4068°
Arg. of periapsis
312.8089°
True anomaly
47.30323°
Mean anomaly
46.9984°
Eccentric anomaly
47.15072°
Mean motion
3.24172 °/min
Orbital period
111.05 mins
BSTAR
0.0014289
Loading maneuver chart data...
Computing Atmospheric mass density...
Loading historical data...
Loading historical data...
Loading historical data...
Loading historical data...
Loading historical data...
Loading historical data...
Loading historical data...

Documentation

Showing up to 5 results
|